EW9663 Weather Reports


time (UTC)temp
C
wind
direction
speed
KPH
gust
KPH
rain 1hr
cm
rain 24hr
cm
rain mn
cm
humidity
%
barometer
mb
20181209233026 8 67 0.0 0.0 0.00 0.00 0.00 94 1031.2
20181209231533 8 329 0.0 0.0 0.00 0.00 0.00 93 1031.0
20181209230017 8 329 0.0 0.0 0.00 0.00 0.00 93 1030.9
20181209224526 9 329 0.0 0.0 0.00 0.00 0.00 93 1031.1
20181209223016 9 329 0.0 0.0 0.00 0.00 0.00 93 1031.1
20181209221515 9 329 0.0 0.0 0.00 0.00 0.00 93 1031.2
20181209220044 10 329 0.0 0.0 0.00 0.00 0.00 93 1031.2
20181209214519 10 329 0.0 0.0 0.00 0.00 0.00 93 1031.2
20181209213008 10 329 0.0 0.0 0.00 0.00 0.00 93 1031.3
20181209211539 10 329 0.0 0.0 0.00 0.00 0.00 93 1031.1
20181209210012 10 329 0.0 0.0 0.00 0.00 0.00 92 1031.2
20181209204529 11 329 0.0 0.0 0.00 0.00 0.00 92 1031.3
20181209203010 11 329 0.0 0.0 0.00 0.00 0.00 92 1031.3
20181209201518 11 329 0.0 0.0 0.00 0.00 0.00 92 1031.2
20181209200008 12 329 0.0 0.0 0.00 0.00 0.00 92 1031.1
20181209194513 12 329 0.0 0.0 0.00 0.00 0.00 92 1030.9
20181209193008 12 329 0.0 0.0 0.00 0.00 0.00 92 1030.9
20181209191510 12 329 0.0 0.0 0.00 0.00 0.00 92 1030.9
20181209190005 12 329 0.0 0.0 0.00 0.00 0.00 92 1030.8
20181209184503 12 329 0.0 0.0 0.00 0.00 0.00 92 1030.7
20181209183004 13 329 0.0 0.0 0.00 0.00 0.00 92 1030.5
20181209181504 13 329 0.0 0.0 0.00 0.00 0.00 92 1030.4
20181209180010 13 329 0.0 0.0 0.00 0.00 0.00 92 1030.3
20181209174655 13 329 0.0 0.0 0.00 0.00 0.00 92 1030.2
20181209171715 13 335 0.0 0.0 0.00 0.00 0.00 91 1030.0
20181209170255 13 332 0.0 0.0 0.00 0.00 0.00 91 1030.0
20181209164741 13 344 0.0 0.0 0.00 0.00 0.00 90 1029.9
20181209163210 14 329 0.0 0.0 0.00 0.00 0.00 89 1029.8
20181209161634 15 331 0.0 0.0 0.00 0.00 0.00 88 1029.7
20181209160150 15 333 0.0 0.0 0.00 0.00 0.00 87 1029.6
20181209154745 15 319 0.0 0.0 0.00 0.00 0.00 87 1029.4
20181209153205 15 337 0.0 0.0 0.00 0.00 0.00 86 1029.5
20181209151615 15 314 0.0 0.0 0.00 0.00 0.00 85 1029.6
20181209150221 15 319 0.0 0.0 0.00 0.00 0.00 84 1029.6
20181209144657 15 309 0.0 0.0 0.00 0.00 0.00 85 1029.6
20181209143134 15 321 0.0 0.0 0.00 0.00 0.00 84 1029.7
20181209141628 15 306 0.0 0.0 0.00 0.00 0.00 85 1030.0
20181209140153 15 337 0.0 0.0 0.00 0.00 0.00 85 1030.1
20181209134627 15 360 0.0 0.0 0.00 0.00 0.00 83 1030.3
20181209133132 16 346 0.0 0.0 0.00 0.00 0.00 81 1030.5
20181209131642 16 331 0.0 0.0 0.00 0.00 0.00 82 1030.6
20181209130105 15 324 0.0 0.0 0.00 0.00 0.00 82 1031.0
20181209124614 15 322 0.0 0.0 0.00 0.00 0.00 82 1031.2
20181209123052 15 317 0.0 0.0 0.00 0.00 0.00 84 1031.5
20181209121531 15 301 0.0 0.0 0.00 0.00 0.00 83 1031.7
20181209120102 15 315 0.0 0.0 0.00 0.00 0.00 83 1031.9
20181209114543 15 313 0.0 0.0 0.00 0.00 0.00 82 1032.1
20181209113040 14 337 0.0 0.0 0.00 0.00 0.00 82 1032.4
20181209110014 13 65 0.0 0.0 0.00 0.00 0.00 81 1033.1
20181209104526 13 65 0.0 0.0 0.00 0.00 0.00 83 1033.2
20181209103139 12 65 0.0 0.0 0.00 0.00 0.00 87 1033.4
20181209101716 11 65 0.0 0.0 0.00 0.00 0.00 89 1033.6
20181209100152 10 65 0.0 0.0 0.00 0.00 0.00 91 1033.7
20181209094601 9 65 0.0 0.0 0.00 0.03 0.00 92 1033.9
20181209093129 8 65 0.0 0.0 0.00 0.03 0.00 93 1033.8
20181209091617 8 56 0.0 0.0 0.00 0.03 0.00 94 1033.8
20181209090103 7 33 0.0 0.0 0.00 0.03 0.00 94 1033.6
20181209084638 7 33 0.0 0.0 0.00 0.03 0.00 94 1033.5
20181209083106 6 33 0.0 0.0 0.00 0.03 0.00 94 1033.5
20181209081614 6 33 0.0 0.0 0.00 0.03 0.00 94 1033.4
20181209080051 6 33 0.0 0.0 0.00 0.03 0.00 94 1033.2
20181209074613 6 33 0.0 0.0 0.00 0.03 0.00 94 1033.2
20181209073040 6 33 0.0 0.0 0.00 0.03 0.00 94 1033.2
20181209071538 6 33 0.0 0.0 0.00 0.03 0.00 94 1033.1
20181209070046 6 33 0.0 0.0 0.00 0.03 0.00 94 1033.0
20181209064531 6 33 0.0 0.0 0.00 0.03 0.00 93 1032.9
20181209063045 6 33 0.0 0.0 0.00 0.03 0.00 93 1033.0
20181209061522 6 33 0.0 0.0 0.00 0.03 0.00 94 1032.9
20181209060032 6 33 0.0 0.0 0.00 0.03 0.00 94 1032.7
20181209054531 6 33 0.0 0.0 0.00 0.03 0.00 94 1032.6
20181209053017 6 33 0.0 0.0 0.00 0.03 0.00 93 1032.4
20181209051524 6 33 0.0 0.0 0.00 0.03 0.00 93 1032.3
20181209050021 6 33 0.0 0.0 0.00 0.03 0.00 93 1032.2
20181209044511 6 33 0.0 0.0 0.00 0.03 0.00 93 1032.5
20181209043025 7 33 0.0 0.0 0.00 0.03 0.00 93 1032.5
20181209041518 7 33 0.0 0.0 0.00 0.03 0.00 93 1032.6
20181209034704 7 33 0.0 0.0 0.00 0.05 0.00 93 1032.7
20181209033127 7 33 0.0 0.0 0.00 0.05 0.00 93 1032.8
20181209031634 7 33 0.0 0.0 0.00 0.05 0.00 93 1032.9
20181209030208 7 33 0.0 0.0 0.00 0.05 0.00 93 1033.0
20181209024636 7 33 0.0 0.0 0.00 0.05 0.00 93 1033.0
20181209023219 7 33 0.0 0.0 0.00 0.05 0.00 92 1033.0
20181209021642 7 33 0.0 0.0 0.00 0.05 0.00 92 1033.0
20181209020109 7 33 0.0 0.0 0.00 0.05 0.00 92 1033.0
20181209014642 8 33 0.0 0.0 0.00 0.05 0.00 92 1033.0
20181209013149 8 33 0.0 0.0 0.00 0.05 0.00 92 1033.1
20181209011621 8 33 0.0 0.0 0.00 0.05 0.00 92 1033.0
20181209010121 8 33 0.0 0.0 0.00 0.05 0.00 92 1033.2
20181209004604 8 33 0.0 0.0 0.00 0.05 0.00 92 1033.3
20181209003128 8 33 0.0 0.0 0.00 0.05 0.00 92 1033.3
20181209001550 8 33 0.0 0.0 0.00 0.05 0.00 92 1033.3
20181209000133 8 33 0.0 0.0 0.00 0.05 0.00 92 1033.3
20181208234605 8 33 0.0 0.0 0.00 0.05 0.05 92 1033.4